Weather History for Covington, KY

Change the Weather History Date:

Tuesday, January 22, 2013

  Actual Average Record
Temperature  
Mean Temperature 13 °F 31 °F  
Max Temperature 19 °F 39 °F 69 °F (1993)
Min Temperature 7 °F 23 °F -15 °F (1936)
Degree Days  
Heating Degree Days 52 34  
Month to date heating degree days 672 748  
Since 1 July heating degree days 2538 2667  
Cooling Degree Days 0 0  
Month to date cooling degree days 0 0  
Year to date cooling degree days 0 0  
Moisture  
Dew Point -2 °F    
Average Humidity 49    
Maximum Humidity 63    
Minimum Humidity 34    
Precipitation  
Precipitation T in 0.09 in 2.22 in (1982)
Month to date precipitation 1.98 2.13  
Year to date precipitation 1.98 2.13  
Snow  
Snow T in 0.30 in 4.50 in (1966)
Month to date snowfall 0.6 4.4  
Since 1 July snowfall 8.2 10.0  
Snow Depth 0.00 in    
Sea Level Pressure  
Sea Level Pressure 30.34 in    
Wind  
Wind Speed 10 mph (WNW)    
Max Wind Speed 18 mph    
Max Gust Speed 23 mph    
Visibility 10 miles    
Events Snow    
T = Trace of Precipitation, MM = Missing Value Source: NWS Daily Summary

Daily Weather History Graph

Daily Weather History Graph

Search for Another Location

Airport:

Trip Planner

Search our weather history database for the weather conditions in past years. The results will help you decide how hot, cold, wet, or windy it might be!

Date:

Astronomy

Jan. 22, 2013 Rise Set
Actual Time 7:52 AM EST 5:48 PM EST
Civil Twilight 7:23 AM EST 6:17 PM EST
Nautical Twilight 6:51 AM EST 6:49 PM EST
Astronomical Twilight 6:19 AM EST 7:21 PM EST
Moon 2:11 PM EST (1/22) 4:13 AM EST (1/22)
Length of Visible Light 10h 53m
Length of Day
9h 55m
Waxing Gibbous, 82% of the Moon is Illuminated
Jan 22
Waxing Gibbous
Jan 26
Full
Feb 3
Last Quarter
Feb 10
New
Feb 17
First Quarter

Hourly Weather History & Observations

Time (EST) Temp. Windchill Dew Point Humidity Pressure Visibility Wind Dir Wind Speed Gust Speed Precip Events Conditions
12:52 AM 12.0 °F -1.3 °F -2.0 °F 53% 30.27 in 10.0 mi WNW 10.4 mph - N/A   Partly Cloudy
1:52 AM 10.9 °F -1.8 °F -2.0 °F 56% 30.28 in 10.0 mi West 9.2 mph - N/A   Partly Cloudy
2:52 AM 10.0 °F -2.9 °F -2.0 °F 58% 30.30 in 10.0 mi WNW 9.2 mph - N/A   Scattered Clouds
3:52 AM 10.0 °F -4.5 °F -0.9 °F 61% 30.29 in 10.0 mi WNW 11.5 mph - N/A   Scattered Clouds
4:52 AM 9.0 °F -7.3 °F -2.0 °F 61% 30.30 in 10.0 mi WNW 13.8 mph - N/A   Partly Cloudy
5:36 AM 10.4 °F -3.3 °F -0.4 °F 62% 30.28 in 9.0 mi NNW 10.4 mph - N/A   Overcast
5:52 AM 9.0 °F -4.2 °F -0.0 °F 67% 30.32 in 5.0 mi NW 9.2 mph 18.4 mph 0.00 in Snow Light Snow
6:52 AM 8.1 °F -7.0 °F -0.9 °F 67% 30.34 in 10.0 mi NW 11.5 mph - 0.00 in   Mostly Cloudy
7:50 AM 8.6 °F -2.6 °F -0.4 °F 67% 30.32 in 7.0 mi WNW 6.9 mph - 0.00 in Snow Light Snow
7:52 AM 8.1 °F -5.3 °F -0.9 °F 67% 30.37 in 7.0 mi NW 9.2 mph - 0.00 in Snow Light Snow
8:52 AM 8.1 °F -7.7 °F -2.0 °F 64% 30.38 in 10.0 mi West 12.7 mph - 0.00 in   Scattered Clouds
9:52 AM 10.0 °F -1.9 °F -0.9 °F 61% 30.40 in 10.0 mi West 8.1 mph - N/A   Partly Cloudy
10:52 AM 10.9 °F -0.8 °F -2.0 °F 56% 30.42 in 10.0 mi NW 8.1 mph - N/A   Scattered Clouds
11:52 AM 14.0 °F 0.5 °F -2.9 °F 47% 30.41 in 10.0 mi West 11.5 mph - N/A   Partly Cloudy
12:52 PM 16.0 °F 3.6 °F -2.9 °F 43% 30.38 in 10.0 mi WNW 10.4 mph 16.1 mph N/A   Scattered Clouds
1:52 PM 17.1 °F 6.6 °F -2.9 °F 41% 30.35 in 10.0 mi West 8.1 mph - N/A   Partly Cloudy
2:52 PM 19.0 °F 7.5 °F -4.0 °F 36% 30.34 in 10.0 mi West 10.4 mph - N/A   Scattered Clouds
3:52 PM 19.0 °F 5.6 °F -5.1 °F 34% 30.35 in 10.0 mi West 13.8 mph - N/A   Scattered Clouds
4:52 PM 18.0 °F 5.4 °F -5.1 °F 36% 30.35 in 10.0 mi West 11.5 mph 17.3 mph N/A   Scattered Clouds
5:52 PM 16.0 °F 4.4 °F -2.9 °F 43% 30.36 in 10.0 mi WSW 9.2 mph - N/A   Partly Cloudy
6:52 PM 16.0 °F 4.4 °F -2.9 °F 43% 30.37 in 10.0 mi WSW 9.2 mph - N/A   Mostly Cloudy
7:52 PM 15.1 °F 5.2 °F -2.0 °F 47% 30.36 in 10.0 mi West 6.9 mph - N/A   Overcast
8:52 PM 16.0 °F 4.4 °F -0.9 °F 47% 30.35 in 10.0 mi West 9.2 mph - N/A   Overcast
9:52 PM 16.0 °F 5.3 °F -0.9 °F 47% 30.35 in 10.0 mi West 8.1 mph - N/A   Overcast
10:52 PM 16.0 °F 3.6 °F -0.9 °F 47% 30.36 in 10.0 mi West 10.4 mph - N/A   Overcast
11:52 PM 16.0 °F 5.3 °F -0.0 °F 49% 30.37 in 10.0 mi West 8.1 mph - N/A   Overcast